User: anonymous   Login
Location: Unspecified
(0.0000°N, 0.0000°E)
Time: 22:37:52
(UTC+00:00)
Language:

Kosmos-2233 - Orbit

View from above orbital plane
View from above orbital plane
View from above satellite
View from above satellite

Ground track
Ground track

The orbit data is extracted from the following two-line orbital elements,

1 22487U 93008A   24103.41399000  .00000081  00000-0  67107-4 0  9993
2 22487  82.9457  52.8776 0038005 177.3503 302.7433 13.75912830560582
Epoch (UTC): 12 April 2024 09:56:08
Eccentricity: 0.0038005
inclination: 82.9457°
perigee height: 950 km
apogee height: 1006 km
right ascension of ascending node: 52.8776°
argument of perigee: 177.3503°
revolutions per day: 13.75912830
mean anomaly at epoch: 302.7433°
orbit number at epoch: 56058

The dashed part of the orbit path shows where the satellite is in the earth's shadow,  

DLR